Location: Rockford
(42.2710°N, 89.0940°W)
Time: 23:14:51
(UTC-05:00)

Daily predictions for brighter satellites

Satellite Brightness Start Highest point End
(mag) Time Altitude Azimuth Time Altitude Azimuth Time Altitude Azimuth
Cosmos 2112 Rocket 4.1 20:49:08 10° S 20:54:12 54° ESE 20:59:16 10° NNE
Cosmos 1238 Rocket 4.5 20:50:06 10° SSE 20:56:27 46° E 21:02:34 10° NNE
ISS -3.8 20:54:05 10° SW 20:57:21 63° SE 21:00:38 10° ENE
Cosmos 1346 2.8 20:55:10 10° S 20:57:54 64° E 21:00:40 10° NNE
Aureole 3 Rocket 3.6 20:52:08 10° S 20:58:19 62° E 21:02:43 10° NNE
OAO 2 Rocket 4.0 20:55:42 10° WSW 21:00:11 36° S 21:04:43 10° ESE
ASTEX 1 3.9 20:56:24 10° SSE 21:01:00 42° ENE 21:05:36 10° N
H-2A R/B 3.8 21:01:00 10° E 21:03:55 16° ENE 21:06:53 10° NNE
Helios 1A 3.1 21:00:53 10° S 21:05:06 81° WSW 21:09:20 10° NNW
SJ-11-01 4.3 21:00:46 10° SSE 21:05:27 85° ENE 21:10:12 10° NNW
SAR-Lupe-4 3.6 21:02:29 10° SSE 21:06:04 87° ENE 21:09:41 10° NNW
SL-27 R/B 2.6 21:03:20 10° S 21:06:57 60° ESE 21:10:33 10° NNE
Cosmos 1939 Rocket 2.8 21:05:43 10° SSE 21:09:34 86° WSW 21:13:28 10° NNW
YAOGAN 6 2.7 21:07:00 10° SSE 21:10:24 55° ENE 21:13:52 10° N
Cosmos 1666 2.6 21:07:55 10° N 21:11:41 81° E 21:15:25 10° S
Meteor 2-9 Rocket 4.3 21:07:26 10° N 21:12:54 66° ENE 21:18:30 10° SSE
Meteor 2-13 Rocket 4.5 21:09:40 10° N 21:15:46 89° WNW 21:21:51 10° S
Cosmos 1680 Rocket 3.6 21:11:30 10° SSW 21:16:44 81° WNW 21:21:58 10° NNE
Okean 1-7 Rocket 3.7 21:13:14 10° S 21:17:35 56° E 21:22:01 10° NNE
DNEPR-1 R/B 3.8 21:14:05 10° NW 21:18:18 66° WSW 21:22:55 10° SSE
Intercosmos 24 4.2 21:16:17 10° N 21:20:00 43° ENE 21:22:54 13° SSE
Cosmos 2056 Rocket 4.0 21:15:07 10° N 21:20:04 43° ENE 21:24:17 13° SE
Cosmos 1833 Rocket 4.1 21:19:03 12° SE 21:22:09 18° E 21:25:48 10° ENE
Cosmos 1437 Rocket 3.4 21:18:46 10° N 21:22:22 37° ENE 21:25:17 14° SE
SAR-Lupe-1 4.3 21:18:52 10° S 21:22:26 68° WSW 21:26:02 10° NNW
Envisat 3.8 21:20:21 10° S 21:25:18 52° W 21:30:16 10° NNW
Helios 1B rocket 3.2 21:23:18 10° N 21:27:22 55° WNW 21:31:24 10° SSW
MetOp-A 4.4 21:23:25 12° SSE 21:28:16 55° ENE 21:33:30 10° N
Meteor 2-4 Rocket 3.8 21:24:01 10° S 21:29:40 87° W 21:35:32 10° N
Cosmos 1606 Rocket 4.0 21:25:58 10° N 21:30:05 43° ENE 21:33:15 16° SE
PSLV R/B 3.6 21:28:09 10° W 21:31:09 43° SSW 21:32:59 20° SE
Cosmos 405 3.1 21:33:44 10° NNW 21:37:19 76° W 21:40:27 13° S
Cosmos 1726 Rocket 3.9 21:35:40 10° N 21:39:50 45° ENE 21:42:37 19° SE
Cosmos 1025 Rocket 3.0 21:37:32 10° S 21:41:48 88° WNW 21:46:06 10° N
USA 245 3.3 21:42:20 25° ESE 21:42:59 29° ENE 21:45:05 10° N
Cosmos 1515 4.1 21:40:58 18° SSE 21:43:29 43° E 21:47:07 10° NNE
COSMOS 2487 3.4 21:43:44 22° SE 21:45:10 30° ESE 21:48:19 10° NE
CZ-3A R/B 0.3 21:45:57 10° SW 21:49:46 45° SE 21:50:16 35° E
Cosmos 1452 Rocket 4.4 21:47:09 10° N 21:51:59 35° ENE 21:55:04 19° ESE
Cosmos 1980 Rocket 3.9 21:48:23 10° N 21:52:34 21° NE 21:56:23 11° E
Aureole 1 Rocket 4.4 21:50:18 10° SW 21:53:05 27° WNW 21:55:42 10° N
Cosmos 2058 Rocket 3.4 21:50:09 10° N 21:54:27 48° ENE 21:56:51 24° SE
SPOT 1/Viking Rocket 3.9 21:51:40 20° SE 21:54:58 50° ENE 21:59:57 10° N
YAOGAN 11 4.0 21:52:10 20° SSE 21:55:03 76° ENE 21:59:24 10° N
Cosmos 2181 Rocket 4.1 21:49:25 12° S 21:55:09 59° E 22:01:19 10° NNE
Okean 2 3.5 21:54:24 10° SSW 21:58:28 74° W 22:02:34 10° N
Tiangong 2 1.0 21:55:41 10° W 21:58:52 86° N 22:00:57 20° E
Cosmos 1371 Rocket 4.3 21:54:27 10° NNW 21:59:44 65° WSW 22:03:45 17° S
ARGOS 3.1 21:58:31 19° SSE 22:02:27 82° ENE 22:07:54 10° NNW
Lacrosse 5 rocket 4.3 22:00:10 10° NNW 22:02:35 14° N 22:05:00 10° NE
ERS-1 Rocket 3.7 22:01:27 12° S 22:06:00 51° W 22:10:54 10° NNW
OE (NEXTSAT) 4.4 22:04:04 10° WNW 22:07:36 64° SSW 22:08:47 37° SE
Terra 2.9 22:07:57 22° ESE 22:10:01 32° ENE 22:14:12 10° N
SPOT 5 2.6 22:09:28 24° S 22:12:00 81° WSW 22:16:24 10° NNW
H-2A R/B 3.1 22:15:12 25° ESE 22:16:54 34° ENE 22:20:59 10° N
IGS 5A 4.5 22:18:14 27° ESE 22:19:28 33° ENE 22:23:13 10° N
Cosmos 1626 Rocket 3.9 22:26:20 38° SE 22:27:21 46° E 22:31:30 10° NNE
Cosmos 2082 Rocket 2.1 22:23:35 16° SSW 22:28:13 70° ESE 22:33:51 10° NNE
Cosmos 2278 3.8 22:22:35 10° NNW 22:28:17 73° WSW 22:31:16 29° S
Meteor 1-22 Rocket 4.3 22:27:21 10° N 22:32:35 55° ENE 22:34:40 34° SE
ISS -1.4 22:31:16 10° WNW 22:34:04 25° NNW 22:36:53 10° NE
USA 229 DEB 4.4 22:27:42 10° NNW 22:34:35 48° NE 22:39:05 22° ESE
USA 229 4.4 22:27:49 10° NNW 22:34:41 48° NE 22:39:11 22° ESE
SL-8 Rocket 4.0 22:28:37 10° N 22:34:54 90° W 22:38:28 28° S
Cosmos 2366 rocket 3.9 22:34:31 10° N 22:40:42 75° E 22:43:33 34° SSE
H-2A R/B 2.1 22:40:27 32° S 22:42:45 67° WSW 22:47:47 10° NNW
OAO 2 Rocket 4.4 22:40:14 10° WSW 22:44:05 26° SSW 22:44:05 26° SSW
Cosmos 2228 3.5 22:40:27 10° NNW 22:44:39 54° W 22:46:19 32° SSW
Cosmos 158 Rocket 4.4 22:46:06 40° SE 22:47:14 46° ESE 22:52:21 10° NNE
Cosmos 921 Rocket 4.2 22:43:25 10° NNW 22:47:33 37° W 22:49:22 25° SSW
Cosmos 2369 4.3 22:42:30 10° NW 22:48:02 51° WSW 22:50:41 29° SSW
Meteor 1-4 Rocket 2.4 22:44:49 10° NNW 22:48:25 76° W 22:48:46 67° SSW
Cosmos 1697 Rocket 2.6 22:43:13 10° NNW 22:48:52 83° ENE 22:50:57 41° SSE
CZ-4C R/B 4.5 22:52:04 26° ENE 22:52:04 26° ENE 22:55:04 10° NNE
SL-16 R/B 3.9 22:50:21 10° N 22:54:49 23° NE 22:57:37 16° E
CZ-4B R/B 3.8 22:51:04 10° NNE 22:55:58 46° E 22:56:46 43° SE
Cosmos 1656 3.9 22:50:41 10° NNW 22:56:04 61° WSW 22:58:04 37° S
Iridium 2 4.2 22:53:11 10° N 22:56:44 45° ENE 22:56:44 45° ENE
Cosmos 1842 3.7 22:59:00 46° E 22:59:00 46° E 23:02:32 10° NNE
Cosmos 1602 Rocket 3.6 23:01:03 48° SSW 23:02:12 75° W 23:06:32 10° N
DMSP B5D2-2 4.3 22:58:33 10° N 23:03:49 71° WNW 23:06:34 29° SSW
Cosmos 1271 Rocket 2.9 23:00:45 10° N 23:04:37 59° ENE 23:04:38 59° E
SL-19 R/B 4.3 23:04:46 66° ESE 23:05:13 73° ENE 23:09:03 10° N
Cosmos 1833 Rocket 3.0 23:00:37 14° SW 23:05:28 64° WNW 23:11:05 10° NNE
CZ-4 R/B 3.8 23:05:14 10° NNE 23:10:17 76° ESE 23:11:25 53° S
deb Chang Zheng 4 3.5 23:06:34 10° NNE 23:10:53 84° WNW 23:11:40 60° SSW
Cosmos 1269 Rocket 3.9 23:10:47 47° S 23:12:19 81° ESE 23:17:39 10° NNE
Timation 2 Rocket 3.9 23:08:52 26° SSW 23:12:41 90° SE 23:18:52 10° NNE
Cosmos 389 Rocket 3.8 23:15:29 10° N 23:17:59 31° NE 23:17:59 31° NE
Cosmos 1953 3.0 23:15:18 10° N 23:19:02 44° ENE 23:19:02 44° ENE
Cosmos 1420 Rocket 4.2 23:15:04 10° NNW 23:20:15 60° WSW 23:21:26 47° SSW
DELTA 2 DEB (DPAF) 4.1 23:20:03 67° ESE 23:20:29 72° ENE 23:24:58 10° N
Cosmos 1048 Rocket 4.0 23:22:41 44° SSW 23:24:20 77° WNW 23:29:32 10° NNE
CZ-2C R/B 4.5 23:23:18 24° E 23:24:53 28° ENE 23:29:39 10° N
CARTOSAT-1 4.4 23:27:22 37° WSW 23:27:58 39° W 23:32:02 10° NNW
Cosmos 1110 Rocket 4.4 23:25:49 10° N 23:30:57 51° ENE 23:31:52 46° E
Cosmos 1766 4.2 23:31:20 10° NNW 23:35:00 38° W 23:35:01 38° W
SL-24 R/B - RUBIN 2 4.4 23:32:22 36° SSW 23:35:20 83° ESE 23:41:54 10° NE
Cosmos 2360 Rocket 4.2 23:31:19 10° N 23:35:27 20° NE 23:38:26 14° E
Tiangong 2 3.7 23:32:28 10° W 23:33:11 16° W 23:33:11 16° W
Cosmos 1544 3.7 23:32:55 10° NNW 23:35:56 52° NW 23:35:56 52° NW
Cosmos 1980 Rocket 2.2 23:31:29 10° NNW 23:37:06 68° WSW 23:38:08 55° SSW
Lacrosse 5 rocket 3.2 23:39:01 10° NNW 23:43:09 31° NNE 23:45:12 22° ENE
SME Rocket 3.6 23:43:00 58° ESE 23:43:36 63° ENE 23:47:45 10° N
Cosmos 2322 Rocket 2.6 23:42:07 10° NNW 23:47:43 55° ENE 23:48:59 45° ESE
Terra 3.2 23:46:49 26° WSW 23:47:43 28° W 23:51:49 10° NW
Nadezhda 3 Rocket 4.2 23:46:50 42° SSW 23:49:03 70° W 23:55:25 10° N
Cosmos 1758 Rocket 3.5 23:50:40 76° NNE 23:50:40 76° NNE 23:54:43 10° N
Cosmos 1470 3.5 23:47:13 10° N 23:50:32 49° NE 23:50:32 49° NE
USA 267 3.2 23:44:45 10° NE 23:51:15 64° SE 23:52:59 48° S
H-2A R/B 3.8 23:52:19 23° WSW 23:52:55 24° W 23:56:37 10° NW
